Henderson, KY

12:38 PM CST on November 12, 2019 (GMT -0600)
Henderson City-County

Weather History for KEHR - September, 2019

Change the Weather History Date:

Sunday, September 22, 2019

  Actual Average Record
Temperature  
Mean Temperature 78 °F -  
Max Temperature 91 °F 78 °F 98 °F (1940)
Min Temperature 64 °F 55 °F 36 °F (1983)
Cooling Degree Days 12    
Growing Degree Days 28 (Base 50)    
Moisture  
Dew Point 61 °F    
Average Humidity 60    
Maximum Humidity 93    
Minimum Humidity 36    
Precipitation  
Precipitation 0.00 in - - ()
Sea Level Pressure  
Sea Level Pressure 30.04 in    
Wind  
Wind Speed 7 mph (SSW)    
Max Wind Speed 15 mph    
Max Gust Speed 29 mph    
Visibility 10 miles    
Events Rain    
Averages and records for this station are not official NWS values.
T = Trace of Precipitation, MM = Missing Value Source: NWS Daily Summary

Daily Weather History Graph

Daily Weather History Graph

Search for Another Location

Airport or City:

Astronomy

Sep. 22, 2019 Rise Set
Actual Time 6:38 AM CDT 6:48 PM CDT
Civil Twilight 6:12 AM CDT 7:14 PM CDT
Nautical Twilight 5:41 AM CDT 7:44 PM CDT
Astronomical Twilight 5:10 AM CDT 8:15 PM CDT
Moon No Moon Rise 2:36 PM CDT (9/22)
Length of Visible Light 13h 02m
Length of Day
12h 09m
Last Quarter, 44% of the Moon is Illuminated
Sep 22
Last Quarter
Sep 28
New
Oct 5
First Quarter
Oct 13
Full
Oct 21
Last Quarter

Hourly Weather History & Observations

Time (CDT) Temp. Heat Index Dew Point Humidity Pressure Visibility Wind Dir Wind Speed Gust Speed Precip Events Conditions
12:56 AM 66.9 °F - 57.9 °F 73% 30.11 in 10.0 mi South 3.5 mph - N/A   Clear
1:56 AM 66.0 °F - 57.9 °F 75% 30.10 in 10.0 mi South 4.6 mph - N/A   Clear
2:56 AM 66.0 °F - 59.0 °F 78% 30.10 in 10.0 mi South 4.6 mph - N/A   Clear
3:56 AM 66.0 °F - 59.0 °F 78% 30.10 in 10.0 mi South 3.5 mph - N/A   Clear
4:56 AM 64.9 °F - 59.0 °F 81% 30.11 in 10.0 mi South 4.6 mph - N/A   Clear
5:56 AM 64.9 °F - 59.0 °F 81% 30.11 in 10.0 mi South 4.6 mph - N/A   Clear
6:56 AM 64.9 °F - 60.1 °F 84% 30.11 in 10.0 mi South 4.6 mph - N/A   Clear
7:56 AM 70.0 °F - 61.0 °F 73% 30.12 in 10.0 mi South 6.9 mph - N/A   Clear
8:56 AM 77.0 °F - 61.0 °F 58% 30.11 in 10.0 mi SSW 10.4 mph - N/A   Clear
9:56 AM 81.0 °F 81.7 °F 61.0 °F 50% 30.11 in 10.0 mi SW 12.7 mph 21.9 mph N/A   Clear
10:56 AM 84.9 °F 85.4 °F 62.1 °F 46% 30.08 in 10.0 mi SW 12.7 mph 20.7 mph N/A   Clear
11:56 AM 88.0 °F 88.4 °F 62.1 °F 42% 30.06 in 10.0 mi SSW 12.7 mph 28.8 mph N/A   Clear
12:56 PM 89.1 °F 89.3 °F 62.1 °F 40% 30.04 in 10.0 mi SW 10.4 mph 23.0 mph N/A   Mostly Cloudy
1:56 PM 88.0 °F 88.4 °F 62.1 °F 42% 30.02 in 10.0 mi SW 10.4 mph - N/A   Scattered Clouds
2:56 PM 90.0 °F 90.0 °F 61.0 °F 38% 29.99 in 10.0 mi SW 12.7 mph 20.7 mph N/A   Scattered Clouds
3:56 PM 91.0 °F 90.9 °F 61.0 °F 36% 29.97 in 10.0 mi SSW 15.0 mph 21.9 mph N/A   Scattered Clouds
4:56 PM 89.1 °F 89.0 °F 61.0 °F 39% 29.96 in 10.0 mi SSW 11.5 mph 19.6 mph N/A   Partly Cloudy
5:56 PM 87.1 °F 87.0 °F 61.0 °F 41% 29.96 in 10.0 mi SSW 13.8 mph - N/A   Clear
6:56 PM 84.0 °F 84.5 °F 62.1 °F 47% 29.96 in 10.0 mi SSW 8.1 mph - N/A   Overcast
7:56 PM 79.0 °F - 62.1 °F 56% 29.96 in 10.0 mi South 5.8 mph - N/A   Clear
8:56 PM 78.1 °F - 63.0 °F 60% 29.97 in 10.0 mi South 5.8 mph - N/A   Clear
9:56 PM 78.1 °F - 63.0 °F 60% 29.98 in 10.0 mi South 8.1 mph - N/A   Partly Cloudy
10:56 PM 77.0 °F - 64.0 °F 64% 30.00 in 10.0 mi WSW 4.6 mph - N/A   Mostly Cloudy
11:56 PM 71.1 °F - 69.1 °F 93% 30.02 in 10.0 mi North 3.5 mph - 0.00 in Rain Light Rain